Location: *
(46.3500°N, 10.9000°E)
Time: 14:02:36
(UTC+00:00)

Explorer 11/Cluster Stage 4 - Pass Details

Date: 19 April 2021
Orbit: 467 x 1257 km, 28.8° (Epoch: 05 May)

Event Time Altitude Azimuth Distance (km) Brightness Sun altitude
Rises 08:37:43 0° 229° (SW) 2,920 9.4 41.6°
Reaches altitude 10° 08:41:45 10° 194° (SSW) 2,207 9.2 42.2°
Maximum altitude 08:43:16 11° 177° (S) 2,199 9.4 42.4°
Drops below altitude 10° 08:44:52 10° 160° (SSE) 2,362 9.8 42.7°
Sets 08:49:44 0° 129° (SE) 3,542 10.7 43.3°
